Location: Moscow
(38.8570°N, 84.2291°W)
Time: 21:19:37
(UTC+00:00)

QB50P2 - Visible Passes

Search period start: 16 March 2026 00:00
Search period end: 26 March 2026 00:00
Orbit: 518 x 531 km, 98.1° (Epoch: 16 March)

Date Brightness Start Highest point End Pass type
(mag) Time Alt. Az. Time Alt. Az. Time Alt. Az.
16 Mar ? 10:18:24 10° NNE 10:21:52 33° E 10:25:18 10° SSE visible
17 Mar ? 10:06:36 10° NE 10:09:42 24° E 10:12:47 10° SSE visible
18 Mar ? 09:55:00 10° NE 09:57:30 17° E 10:00:00 10° SE visible
19 Mar ? 09:43:48 10° ENE 09:45:16 12° E 09:46:43 10° ESE visible
19 Mar ? 11:16:03 10° N 11:19:37 41° WNW 11:23:10 10° SW visible
20 Mar ? 11:03:46 10° N 11:07:30 60° WNW 11:11:14 10° SSW visible
21 Mar ? 10:51:33 10° NNE 10:55:21 89° WNW 10:59:08 10° SSW visible
22 Mar ? 10:39:25 10° NNE 10:43:10 62° ESE 10:46:54 10° S visible
23 Mar ? 10:27:20 10° NNE 10:30:57 41° E 10:34:32 10° S visible
24 Mar ? 10:15:22 10° NE 10:18:42 29° E 10:22:00 10° SSE visible
25 Mar ? 10:03:32 10° NE 10:06:24 20° E 10:09:16 10° SE visible
